DELTA 1 DEB, 7083

Orbit data source: Space-Track

DELTA 1 DEB, 7083 is space debris in SSO originally from a launch on Tue, 06 Nov 1973 UTC launched from the Air Force Western Test Range (AFWTR). Debris objects in space refer to the collection of defunct objects orbiting the Earth. Examples of debris include non-operational satellites, rocket bodies, and fragments generated from explosions, collisions, or faulty payload assembly.

Loading next visibility...
Identifier
7083, 1973-086CB
Orbit
SSO
Country
Flag of USUS
Related business
Manufacturer
Unknown
Mission
Spacecraft
Bus & Motor
Unknown
Mass
Unknown
Launch date (UTC)
1973-11-06 (53 years ago)
Launch vehicle
Unknown
Launch site
Air Force Western Test Range (AFWTR)
Object type
Payload
Rocket body
Debris
Shape & HBR
Unknown shape, 0.1 m
Radar Cross Section
Medium (>0.1 m² and <1 m²)

Expand to show TLE details & history
Last TLE update: 5 days ago

TLE from 5 days ago
0 DELTA 1 DEB
1 07083U 73086CB  26250.97269228  .00000024  00000-0  57284-3 0  9997
2 07083 102.4487 265.4703 0067402  46.9271 343.8153 12.32627144374172
Epoch: 2026-09-07T23:20Z
TLE epoch observation values (Epoch: 2026-09-07T23:20:40.612Z)
Latitude
29.78308°
Longitude
-78.96715°
Altitude
1,490.181 km
Speed
7.144 km/s
True Right ascension
17h 12m 59s
True Declination
29° 38' 56"
Sunlit
Object was in daylight at epoch
Visualization orbit readout
Latitude
Unknown
Longitude
Unknown
Altitude
Unknown
Speed
Unknown
Apparent Right ascension
Unknown
Apparent Declination
Unknown
Sunlit
N/A
Visualization observer readout
Local Sidereal Time
09:19:21
Azimuth
Unknown
Elevation
Unknown
Doppler factor
Unknown
Orbital elements
Apogee altitude
1,588.965 km
Perigee altitude
1,482.284 km
Semi-major axis
7,913.761 km
Eccentricity
0.00674
Inclination
102.4487°
RAAN
265.4703°
Arg. of periapsis
46.9271°
True anomaly
343.59826°
Mean anomaly
343.8153°
Eccentric anomaly
343.70696°
Mean motion
3.08297 °/min
Orbital period
116.77 mins
BSTAR
0.00057284
Loading maneuver chart data...
Computing Atmospheric mass density...
Loading historical data...
Loading historical data...
Loading historical data...
Loading historical data...
Loading historical data...
Loading historical data...
Loading historical data...

Documentation

Showing up to 5 results
|